カタログに戻る

IRIDIUM 33 DEB

運用中PO
NORAD 33953·DEBRIS·🇺🇸 United States

打ち上げ Sep 14, 1997 から Baikonur Cosmodrome

Loading…

次のパス (今後24時間)

TLE

最新Source: Space-Track

元期: Sep 14, 2026, 02:17 UTC

1 33953U 97051BN  26257.09556339  .00002016  00000-0  43814-3 0  9999
2 33953  86.3818 294.0501 0013970 248.1667 140.5900 14.57544044923128

AllMySatでIRIDIUM 33 DEBをリアルタイム追跡

Download on the App Store